Location: Lafig�re
(44.4503°N, 4.0357°E)
Time: 14:35:12
(UTC+00:00)

Vanguard 2 - All Passes

Search period start: 25 January 2021 00:00
Search period end: 04 February 2021 00:00
Orbit: 553 x 2937 km, 32.9° (Epoch: 25 January)

Date Brightness Start Highest point End Pass type
(mag) Time Alt. Az. Time Alt. Az. Time Alt. Az.
25 Jan - 17:01:26 10° SW 17:04:18 18° S 17:07:36 10° SE daylight
25 Jan - 19:08:30 10° SW 19:11:56 19° S 19:16:21 10° SE visible
25 Jan - 21:18:42 10° SSW 21:20:10 11° SSW 21:21:45 10° S visible
26 Jan - 15:13:10 10° S 15:14:29 11° SSE 15:15:49 10° SE daylight
26 Jan - 17:18:57 10° SW 17:21:52 19° S 17:25:15 10° SE visible
26 Jan - 19:26:37 10° SW 19:29:35 16° S 19:33:13 10° SSE visible
27 Jan - 15:29:51 10° SSW 15:32:01 14° S 15:34:11 10° SE daylight
27 Jan - 17:36:38 10° SW 17:39:27 18° S 17:42:42 10° SE visible
27 Jan - 19:45:22 10° SW 19:47:14 12° SSW 19:49:21 10° S visible
28 Jan - 15:47:02 10° SW 15:49:34 16° S 15:52:07 10° SE daylight
28 Jan - 17:54:30 10° SW 17:57:03 16° S 17:59:56 10° SSE visible
29 Jan - 13:57:59 10° S 13:59:38 12° SSE 14:01:10 10° SE daylight
29 Jan - 16:04:29 10° SW 16:07:08 17° S 16:09:48 10° SE daylight
29 Jan - 18:12:44 10° SW 18:14:38 13° SSW 18:16:44 10° SSE visible
30 Jan - 14:14:34 10° SSW 14:17:13 15° S 14:19:35 10° SE daylight
30 Jan - 16:22:07 10° SW 16:24:42 16° S 16:27:18 10° SE daylight
31 Jan - 12:25:59 10° S 12:27:01 10° SSE 12:28:00 10° SSE daylight
31 Jan - 14:31:42 10° SW 14:34:49 17° S 14:37:32 10° SE daylight
31 Jan - 16:39:58 10° SW 16:42:15 15° S 16:44:34 10° SSE daylight
01 Feb - 12:41:30 10° SSW 12:44:40 14° SSE 12:47:20 10° SE daylight
01 Feb - 14:49:06 10° SW 14:52:24 18° S 14:55:16 10° SE daylight
01 Feb - 16:58:11 10° SW 16:59:47 12° SSW 17:01:26 10° S daylight
02 Feb - 12:58:13 10° SSW 13:02:19 18° S 13:05:35 10° SE daylight
02 Feb - 15:06:42 10° SW 15:09:57 18° S 15:12:48 10° SE daylight
03 Feb - 11:08:06 10° S 11:11:47 14° SSE 11:14:51 10° SE daylight
03 Feb - 13:15:21 10° SW 13:19:57 21° S 13:23:29 10° SE daylight
03 Feb - 15:24:28 10° SW 15:27:30 17° SSW 15:30:11 10° SSE daylight
